Kenansville, NC

10:49 AM EST on December 09, 2019 (GMT -0500)
Duplin County

Weather History for KDPL - August, 2019

Change the Weather History Date:

Saturday, August 24, 2019

  Actual Average (WUND) Record (WUND)
Temperature  
Mean Temperature 70 °F -  
Max Temperature 73 °F - - (-1)
Min Temperature 66 °F - - (-1)
Cooling Degree Days 4    
Growing Degree Days 20 (Base 50)    
Moisture  
Dew Point 69 °F    
Average Humidity 94    
Maximum Humidity 100    
Minimum Humidity 88    
Precipitation  
Precipitation 0.21 in - - ()
Sea Level Pressure  
Sea Level Pressure 30.08 in    
Wind  
Wind Speed 3 mph (NNE)    
Max Wind Speed 9 mph    
Max Gust Speed -    
Visibility 7 miles    
Events Rain    
Averages and records for this station are not official NWS values.
T = Trace of Precipitation, MM = Missing Value Source: NWS Daily Summary

Daily Weather History Graph

Daily Weather History Graph

Search for Another Location

Airport or City:

Astronomy

Aug. 24, 2019 Rise Set
Actual Time 6:38 AM EDT 7:49 PM EDT
Civil Twilight 6:12 AM EDT 8:15 PM EDT
Nautical Twilight 5:40 AM EDT 8:46 PM EDT
Astronomical Twilight 5:08 AM EDT 9:19 PM EDT
Moon 12:35 AM EDT (8/24) 2:57 PM EDT (8/24)
Length of Visible Light 14h 03m
Length of Day
13h 10m
Last Quarter, 39% of the Moon is Illuminated
Aug 24
Last Quarter
Aug 30
New
Sep 5
First Quarter
Sep 14
Full
Sep 21
Last Quarter

Hourly Weather History & Observations

Time (EDT) Temp. Dew Point Humidity Pressure Visibility Wind Dir Wind Speed Gust Speed Precip Events Conditions
12:15 AM 73.4 °F 71.6 °F 94% 30.05 in 10.0 mi Calm Calm - N/A   Scattered Clouds
12:35 AM 71.6 °F 71.6 °F 100% 30.04 in 7.0 mi Calm Calm - N/A   Scattered Clouds
12:55 AM 71.6 °F - N/A% 30.04 in 7.0 mi Calm Calm - N/A   Haze
1:15 AM 71.6 °F - N/A% 30.05 in 4.0 mi SW 3.5 mph - 0.01 in Rain Light Rain
1:35 AM 71.6 °F - N/A% 30.04 in 7.0 mi Calm Calm - 0.01 in   Haze
1:55 AM 71.6 °F - N/A% 30.04 in 7.0 mi Calm Calm - 0.01 in   Haze
2:15 AM 71.6 °F - N/A% 30.03 in 5.0 mi Calm Calm - N/A   Haze
2:35 AM 71.6 °F - N/A% 30.03 in 5.0 mi Calm Calm - N/A   Haze
2:55 AM 71.6 °F - N/A% 30.03 in 5.0 mi Calm Calm - N/A   Haze
3:15 AM 71.6 °F - N/A% 30.03 in 5.0 mi Calm Calm - N/A   Haze
3:35 AM 71.6 °F - N/A% 30.03 in 5.0 mi Calm Calm - N/A   Haze
3:55 AM 71.6 °F - N/A% 30.03 in 2.5 mi Calm Calm - 0.05 in Rain Light Rain
4:15 AM 71.6 °F - N/A% 30.03 in 7.0 mi Calm Calm - N/A   Haze
4:35 AM 71.6 °F - N/A% 30.02 in 3.0 mi Calm Calm - 0.01 in Rain Light Rain
4:55 AM 71.6 °F - N/A% 30.03 in 1.2 mi Calm Calm - 0.10 in Rain Light Rain
5:15 AM 71.6 °F - N/A% 30.02 in 5.0 mi Calm Calm - 0.01 in   Haze
5:35 AM 71.6 °F - N/A% 30.03 in 7.0 mi NNE 4.6 mph - 0.01 in   Haze
5:55 AM 71.6 °F - N/A% 30.03 in 7.0 mi North 5.8 mph - 0.01 in   Haze
6:15 AM 71.6 °F - N/A% 30.04 in 5.0 mi NNE 6.9 mph - N/A   Haze
6:35 AM 71.6 °F - N/A% 30.05 in 3.5 mi NNE 3.5 mph - N/A   Overcast
6:55 AM 71.6 °F - N/A% 30.06 in 4.0 mi NNE 4.6 mph - N/A   Haze
7:15 AM 71.6 °F - N/A% 30.07 in 3.5 mi NNE 4.6 mph - N/A   Overcast
7:35 AM 71.6 °F - N/A% 30.08 in 3.5 mi NE 4.6 mph - N/A   Overcast
7:55 AM 71.6 °F 71.6 °F 100% 30.08 in 4.0 mi NNE 3.5 mph - N/A   Overcast
8:15 AM 69.8 °F - N/A% 30.09 in 3.0 mi NNE 6.9 mph - N/A   Overcast
8:35 AM 69.8 °F - N/A% 30.09 in 3.0 mi NNE 8.1 mph - N/A   Overcast
8:55 AM 69.8 °F - N/A% 30.09 in 5.0 mi NE 5.8 mph - N/A   Haze
9:15 AM 71.6 °F 69.8 °F 94% 30.09 in 7.0 mi NE 4.6 mph - N/A   Overcast
9:35 AM 71.6 °F 71.6 °F 100% 30.09 in 10.0 mi NE 3.5 mph - N/A   Overcast
9:55 AM 71.6 °F 71.6 °F 100% 30.10 in 10.0 mi NNE 4.6 mph - N/A   Overcast
10:15 AM 71.6 °F 69.8 °F 94% 30.10 in 10.0 mi NNE 5.8 mph - N/A   Overcast
10:35 AM 71.6 °F 69.8 °F 94% 30.10 in 10.0 mi NNE 6.9 mph - N/A   Overcast
10:55 AM 71.6 °F 69.8 °F 94% 30.11 in 10.0 mi NNE 6.9 mph - N/A   Overcast
11:15 AM 71.6 °F 69.8 °F 94% 30.12 in 7.0 mi North 5.8 mph - N/A   Overcast
11:35 AM 71.6 °F 69.8 °F 94% 30.12 in 10.0 mi Calm Calm - N/A   Overcast
11:55 AM 71.6 °F 69.8 °F 94% 30.11 in 5.0 mi NE 3.5 mph - N/A Rain Light Rain
12:15 PM 69.8 °F 69.8 °F 100% 30.11 in 5.0 mi NNE 4.6 mph - 0.03 in Rain Light Rain
12:35 PM 71.6 °F 69.8 °F 94% 30.11 in 7.0 mi Calm Calm - 0.04 in Rain Light Rain
12:55 PM 71.6 °F 69.8 °F 94% 30.10 in 7.0 mi NE 3.5 mph - 0.04 in Rain Light Rain
1:15 PM 71.6 °F 71.6 °F 100% 30.10 in 7.0 mi Calm Calm - N/A   Overcast
1:35 PM 71.6 °F 71.6 °F 100% 30.10 in 7.0 mi Calm Calm - N/A   Overcast
1:55 PM 73.4 °F 69.8 °F 88% 30.09 in 10.0 mi NNE 3.5 mph - N/A   Overcast
2:15 PM 73.4 °F 69.8 °F 88% 30.09 in 10.0 mi NE 3.5 mph - N/A   Overcast
2:35 PM 73.4 °F 71.6 °F 94% 30.09 in 10.0 mi Calm Calm - N/A   Overcast
2:55 PM 73.4 °F 71.6 °F 94% 30.08 in 10.0 mi Calm Calm - N/A   Overcast
3:15 PM 73.4 °F 71.6 °F 94% 30.08 in 10.0 mi NNE 3.5 mph - N/A   Overcast
3:55 PM 73.4 °F 69.8 °F 88% 30.07 in 7.0 mi NE 4.6 mph - N/A   Overcast
4:15 PM 73.4 °F 69.8 °F 88% 30.07 in 7.0 mi NNE 5.8 mph - N/A   Overcast
4:35 PM 71.6 °F 69.8 °F 94% 30.07 in 7.0 mi NNE 3.5 mph - N/A   Overcast
4:55 PM 71.6 °F 69.8 °F 94% 30.07 in 10.0 mi NNE 3.5 mph - N/A   Overcast
5:15 PM 71.6 °F 69.8 °F 94% 30.07 in 7.0 mi NE 3.5 mph - N/A   Overcast
5:35 PM 71.6 °F 69.8 °F 94% 30.07 in 7.0 mi NNE 6.9 mph - N/A   Overcast
5:55 PM 71.6 °F 69.8 °F 94% 30.08 in 10.0 mi NNE 5.8 mph - N/A   Overcast
6:15 PM 71.6 °F 69.8 °F 94% 30.08 in 7.0 mi NNE 4.6 mph - N/A   Overcast
6:35 PM 69.8 °F 69.8 °F 100% 30.08 in 5.0 mi NNE 5.8 mph - N/A   Overcast
6:55 PM 69.8 °F 69.8 °F 100% 30.08 in 7.0 mi NNE 3.5 mph - N/A   Overcast
7:15 PM 69.8 °F 68.0 °F 94% 30.08 in 7.0 mi Calm Calm - N/A   Overcast
7:35 PM 69.8 °F 69.8 °F 100% 30.08 in 7.0 mi NNE 5.8 mph - N/A   Overcast
7:55 PM 69.8 °F 68.0 °F 94% 30.09 in 10.0 mi NNE 5.8 mph - N/A   Overcast
8:15 PM 69.8 °F 68.0 °F 94% 30.09 in 10.0 mi NNE 6.9 mph - N/A   Overcast
8:35 PM 69.8 °F 68.0 °F 94% 30.10 in 10.0 mi North 9.2 mph - N/A   Overcast
8:55 PM 68.0 °F 66.2 °F 94% 30.11 in 10.0 mi NNE 6.9 mph - N/A   Overcast
9:15 PM 68.0 °F 66.2 °F 94% 30.11 in 10.0 mi NE 5.8 mph - N/A   Overcast
9:35 PM 68.0 °F 66.2 °F 94% 30.12 in 10.0 mi NNE 9.2 mph - N/A   Overcast
9:55 PM 68.0 °F 64.4 °F 88% 30.12 in 10.0 mi NE 5.8 mph - N/A   Overcast
10:15 PM 68.0 °F 64.4 °F 88% 30.13 in 10.0 mi NNE 6.9 mph - N/A   Overcast
10:35 PM 68.0 °F 64.4 °F 88% 30.12 in 10.0 mi NNE 4.6 mph - N/A   Overcast
10:55 PM 68.0 °F 64.4 °F 88% 30.12 in 10.0 mi NNE 5.8 mph - N/A   Overcast
11:15 PM 68.0 °F 64.4 °F 88% 30.12 in 10.0 mi North 6.9 mph - N/A   Overcast
11:35 PM 66.2 °F 62.6 °F 88% 30.12 in 10.0 mi NNE 8.1 mph - N/A   Overcast
11:55 PM 66.2 °F 62.6 °F 88% 30.11 in 10.0 mi NNE 5.8 mph - N/A   Overcast